Location: Devargunta
(16.7631°N, 80.9077°E)
Time: 17:01:43
(UTC+00:00)

Meteor 1-21 Rocket - Pass Details

Date: 19 January 2021
Orbit: 834 x 907 km, 81.2° (Epoch: 25 February)

Event Time Altitude Azimuth Distance (km) Brightness Sun altitude
Rises 13:01:01 0° 181° (S) 3,397 7.6 -8.8°
Reaches altitude 10° 13:03:27 10° 180° (S) 2,455 6.9 -9.4°
Maximum altitude 13:08:59 76° 95° (E) 862 4.1 -10.7°
Drops below altitude 10° 13:14:29 10° 10° (N) 2,439 6.3 -11.9°
Sets 13:16:53 0° 9° (N) 3,374 7.1 -12.5°
